Location: Rancho Del Sol Observatory
(38.7214°N, 120.6350°W)
Time: 22:47:16
(UTC-08:00)

Daily predictions for brighter satellites

Satellite Brightness Start Highest point End
(mag) Time Altitude Azimuth Time Altitude Azimuth Time Altitude Azimuth
Cosmos 1455 Rocket 4.4 17:09:51 10° NNE 17:13:02 19° ENE 17:16:13 10° ESE
CORIOLIS 4.2 17:17:06 10° SSE 17:22:24 57° ENE 17:27:41 10° N
Cosmos 1048 Rocket 4.0 17:18:33 10° NNW 17:23:53 82° ENE 17:29:15 10° SSE
Cosmos 2341 Rocket 4.0 17:19:16 10° N 17:25:30 89° E 17:31:44 10° S
Cosmos 1295 Rocket 4.4 17:19:51 10° N 17:25:58 68° E 17:32:00 10° SSE
Cosmos 158 Rocket 4.1 17:21:05 10° N 17:26:23 58° ENE 17:31:34 10° SSE
CZ-3B DEB 2.0 17:23:19 10° SSW 17:26:26 53° ESE 17:33:57 10° NE
COSMOS 2406 3.2 17:21:48 10° NNW 17:27:29 64° ENE 17:33:10 10° SSE
Cosmos 2278 Rocket 3.2 17:23:02 10° SSE 17:27:33 25° ESE 17:31:58 10° NE
CZ-3A R/B 3.5 17:24:33 10° WSW 17:28:41 55° NNW 17:48:23 10° NE
Cosmos 1484 Rocket 3.7 17:27:35 10° SE 17:30:44 26° ENE 17:33:53 10° NNE
CZ-2C R/B 2.4 17:29:54 10° SSE 17:34:48 84° ENE 17:39:53 10° N
ASTRO F (AKARI) 4.3 17:33:27 10° NNE 17:36:33 56° E 17:39:38 10° S
SPOT 3 Rocket 3.6 17:32:00 10° SSE 17:37:12 89° WSW 17:42:25 10° NNW
Meteor 1-5 Rocket 4.1 17:32:51 10° N 17:38:16 78° E 17:43:49 10° SSE
Cosmos 1238 Rocket 2.5 17:38:44 10° SSE 17:41:34 38° E 17:43:57 13° NNE
Okean 1 3.9 17:47:01 10° SSE 17:50:43 36° E 17:53:41 15° NNE
IDEFIX/ARIANE 42P 2.9 17:46:23 10° S 17:51:34 70° WSW 17:56:46 10° NNW
Cosmos 1536 4.2 17:47:58 10° NNW 17:51:50 42° W 17:55:41 10° SSW
COSMOS 2441 4.3 17:47:27 10° SSE 17:52:15 66° ENE 17:57:06 10° N
Cosmos 2082 Rocket 3.7 17:49:56 10° NNE 17:52:44 15° NE 17:52:44 15° NE
USA 32 4.1 17:50:29 10° S 17:55:42 85° W 18:00:58 10° N
Hubble Space Telescope 3.4 17:55:34 10° SW 17:57:43 14° SSW 17:59:52 10° SSE
COSMO-SKYMED 1 2.6 17:54:27 10° NNE 17:58:45 60° E 18:03:01 10° S
Nadezhda 3 Rocket 4.5 17:53:20 10° SSE 17:58:50 35° E 18:04:24 10° NNE
Cosmos 1544 Rocket 3.5 17:56:44 10° N 18:01:12 86° E 18:05:40 10° S
Cosmos 1833 Rocket 4.4 17:58:02 10° NNE 17:59:57 14° NE 17:59:57 14° NE
OPS 8737 4.3 17:57:59 10° SSW 18:01:24 64° ESE 18:02:33 34° NE
BREEZE-M R/B 4.4 17:50:42 10° SW 18:02:21 77° SE 18:05:51 24° ENE
Cosmos 1500 4.1 17:59:12 10° NNE 18:03:20 28° E 18:06:00 10° SE
Cosmos 864 Rocket 4.4 17:59:22 10° N 18:05:39 76° E 18:11:57 10° SSE
Meteor 1-28 Rocket 3.7 18:04:52 31° ENE 18:05:54 38° E 18:09:27 10° SSE
SL-24 DEB 4.2 18:02:30 10° N 18:07:17 78° E 18:11:59 10° S
SMAP 4.4 18:02:55 10° S 18:07:19 43° W 18:11:46 10° NNW
Meteor 1-18 Rocket 4.1 18:02:39 10° S 18:08:14 83° E 18:13:58 10° N
CZ-4 R/B 3.8 18:07:32 10° SSW 18:11:04 26° W 18:14:35 10° NW
Cosmos 1346 Rocket 3.1 18:10:16 10° SSE 18:13:58 41° E 18:14:10 41° E
MSX 4.2 18:09:17 10° S 18:14:59 67° WSW 18:20:44 10° NNW
ORS 1 (USA 231) 4.5 18:12:29 10° WNW 18:15:42 89° N 18:16:06 66° E
Cosmos 1812 3.0 18:14:56 10° SSW 18:18:46 66° W 18:22:34 10° N
Cosmos 1536 Rocket 3.5 18:14:31 10° S 18:18:58 87° W 18:23:28 10° N
METEOR-M 4.4 18:14:12 10° SE 18:19:10 42° ENE 18:24:10 10° N
NOAA 12 4.2 18:16:39 10° SSE 18:21:45 52° ENE 18:26:53 10° N
OTV 4 1.5 18:23:43 10° W 18:26:32 37° SSW 18:26:41 37° S
Cosmos 494 Rocket 3.9 18:22:26 10° NNW 18:27:42 87° ENE 18:32:57 10° SSE
Cosmos 1975 2.8 18:28:13 10° N 18:32:18 84° W 18:36:21 10° S
BREEZE M DEB (TANK) 4.2 18:30:03 10° NW 18:33:47 35° NNE 18:34:57 33° NE
Cosmos 2251 Rocket 3.8 18:29:53 10° NNW 18:35:14 69° WSW 18:40:29 10° S
NOSS 3-3 (A) 3.9 18:30:30 10° SSW 18:36:39 86° ESE 18:39:53 32° NE
NOSS 3-3 (C) 3.9 18:30:36 10° SSW 18:36:45 86° ESE 18:39:57 33° NE
SL-27 R/B 4.0 18:34:49 10° NW 18:38:14 37° WSW 18:41:36 10° S
Okean 1-7 Rocket 4.2 18:35:40 10° S 18:38:57 42° SE 18:38:57 42° SE
ISS -1.2 18:41:53 10° W 18:44:12 22° NW 18:44:12 22° NW
Cosmos 1844 Rocket 4.3 18:40:51 10° WSW 18:45:45 31° WNW 18:50:44 10° N
ATLAS 2AS CENTAUR R/B 3.1 18:39:08 10° NW 18:47:11 77° WSW 18:54:37 10° SSE
Meteor 2-21 Rocket 4.3 18:41:32 10° N 18:47:46 77° E 18:53:54 10° SSE
GEOS 3 Rocket 4.2 18:45:54 10° SSE 18:50:54 54° WSW 18:55:55 10° NW
Cosmos 2297 3.6 18:47:57 10° S 18:53:32 65° ESE 18:53:32 65° ESE
Meteor 2-16 Rocket 4.3 18:48:06 10° N 18:54:11 70° E 19:00:13 10° SSE
SL-8 R/B 3.7 18:50:19 10° WSW 18:55:03 77° NW 18:55:03 77° NW
SL-24 R/B - RUBIN 2 4.4 18:49:28 10° SSW 18:55:38 70° ESE 18:56:36 61° ENE
Timation 2 Rocket 4.1 18:51:12 10° NNW 18:57:56 59° ENE 18:58:19 58° ENE
Cosmos 1535 Rocket 4.4 18:52:31 10° N 18:58:50 67° E 19:05:01 10° SSE
Meteor 1-19 Rocket 4.1 18:53:41 10° S 18:59:25 79° E 19:00:13 66° NNE
BREEZE M DEB (TANK) 2.9 18:54:17 10° WSW 19:01:08 61° WNW 19:01:08 61° WNW
Timation 1 Rocket 4.4 19:02:51 10° SSW 19:07:54 61° SSE 19:07:54 61° SSE
Cosmos 2278 Rocket 3.2 19:06:01 10° SW 19:11:20 42° WNW 19:13:52 27° N
Cosmos 2239 Rocket 4.4 19:11:36 10° N 19:17:51 85° W 19:24:00 10° S
Cosmos 1821 Rocket 4.3 19:19:34 10° N 19:30:13 19° S 19:31:44 10° S
Cosmos 2082 Rocket 3.8 19:32:20 10° NNW 19:34:39 26° NNW 19:34:39 26° NNW
ATLAS 3B CENTAUR R/B 4.0 19:50:18 10° WSW 19:59:39 33° SSW 19:59:39 33° SSW
CZ-3B DEB 4.3 19:57:31 10° WNW 20:03:11 35° N 20:03:15 35° N
FALCON 9 R/B 4.2 20:23:27 10° W 20:31:06 34° WSW 20:31:06 34° WSW
